| time (UTC) | temp F | wind direction | speed knots | gust knots | rain 1hr in | rain 24hr in | rain mn in | humidity % | barometer mb |
| 20260507155504 | 59 | 228 | 2.6 | 8.7 | 0.00 | 0.00 | 0.00 | 60 | 1015.8 |
| 20260507155004 | 58 | 222 | 2.6 | 11.3 | 0.00 | 0.00 | 0.00 | 59 | 1015.9 |
| 20260507154504 | 59 | 257 | 2.6 | 11.3 | 0.00 | 0.00 | 0.00 | 59 | 1015.9 |
| 20260507154005 | 58 | 235 | 2.6 | 11.3 | 0.00 | 0.00 | 0.00 | 60 | 1015.9 |
| 20260507153005 | 59 | 254 | 1.7 | 7.8 | 0.00 | 0.00 | 0.00 | 59 | 1016.1 |
| 20260507152505 | 58 | 247 | 1.7 | 8.7 | 0.00 | 0.00 | 0.00 | 62 | 1016.1 |
| 20260507152005 | 58 | 237 | 2.6 | 8.7 | 0.00 | 0.00 | 0.00 | 60 | 1016.0 |
| 20260507151504 | 57 | 252 | 3.5 | 10.4 | 0.00 | 0.00 | 0.00 | 61 | 1016.3 |
| 20260507150505 | 57 | 234 | 2.6 | 8.7 | 0.00 | 0.00 | 0.00 | 61 | 1016.3 |
| 20260507150006 | 57 | 293 | 2.6 | 10.4 | 0.00 | 0.00 | 0.00 | 61 | 1016.3 |
| 20260507145005 | 57 | 269 | 2.6 | 8.7 | 0.00 | 0.00 | 0.00 | 63 | 1016.3 |
| 20260507144505 | 57 | 284 | 2.6 | 11.3 | 0.00 | 0.00 | 0.00 | 63 | 1016.3 |
| 20260507144005 | 56 | 222 | 2.6 | 11.3 | 0.00 | 0.00 | 0.00 | 62 | 1016.3 |
| 20260507143505 | 56 | 239 | 3.5 | 11.3 | 0.00 | 0.00 | 0.00 | 64 | 1016.3 |
| 20260507143005 | 56 | 234 | 2.6 | 10.4 | 0.00 | 0.00 | 0.00 | 65 | 1016.3 |
| 20260507142505 | 55 | 244 | 2.6 | 10.4 | 0.00 | 0.00 | 0.00 | 66 | 1016.3 |
| 20260507142005 | 55 | 252 | 3.5 | 10.4 | 0.00 | 0.00 | 0.00 | 66 | 1016.3 |
| 20260507141504 | 55 | 225 | 3.5 | 6.1 | 0.00 | 0.00 | 0.00 | 68 | 1016.3 |
| 20260507141006 | 54 | 229 | 2.6 | 6.1 | 0.00 | 0.00 | 0.00 | 69 | 1016.4 |
| 20260507140505 | 54 | 232 | 1.7 | 6.1 | 0.00 | 0.00 | 0.00 | 69 | 1016.5 |
| 20260507135505 | 53 | 229 | 2.6 | 7.8 | 0.00 | 0.00 | 0.00 | 70 | 1016.6 |
| 20260507135005 | 53 | 272 | 2.6 | 7.8 | 0.00 | 0.00 | 0.00 | 70 | 1016.5 |
| 20260507134505 | 53 | 249 | 2.6 | 10.4 | 0.00 | 0.00 | 0.00 | 71 | 1016.5 |
| 20260507134004 | 52 | 239 | 2.6 | 10.4 | 0.00 | 0.00 | 0.00 | 71 | 1016.5 |
| 20260507133504 | 52 | 240 | 2.6 | 8.7 | 0.00 | 0.00 | 0.00 | 71 | 1016.6 |
| 20260507133004 | 52 | 238 | 2.6 | 8.7 | 0.00 | 0.00 | 0.00 | 71 | 1016.5 |
| 20260507132504 | 51 | 282 | 1.7 | 7.0 | 0.00 | 0.00 | 0.00 | 73 | 1016.5 |
| 20260507132005 | 51 | 244 | 2.6 | 7.8 | 0.00 | 0.00 | 0.00 | 73 | 1016.5 |
| 20260507131505 | 51 | 230 | 1.7 | 7.8 | 0.00 | 0.00 | 0.00 | 73 | 1016.5 |
| 20260507131005 | 50 | 229 | 1.7 | 6.1 | 0.00 | 0.00 | 0.00 | 74 | 1016.6 |
| 20260507130505 | 50 | 232 | 1.7 | 6.1 | 0.00 | 0.00 | 0.00 | 74 | 1016.7 |
| 20260507130005 | 49 | 235 | 1.7 | 6.1 | 0.00 | 0.00 | 0.00 | 75 | 1016.7 |
| 20260507125506 | 49 | 234 | 1.7 | 6.1 | 0.00 | 0.00 | 0.00 | 75 | 1016.8 |
| 20260507124504 | 48 | 233 | 1.7 | 2.6 | 0.00 | 0.00 | 0.00 | 76 | 1016.8 |
| 20260507124005 | 47 | 235 | 1.7 | 2.6 | 0.00 | 0.00 | 0.00 | 76 | 1016.7 |
| 20260507123505 | 47 | 220 | 0.9 | 2.6 | 0.00 | 0.00 | 0.00 | 76 | 1016.7 |
| 20260507123005 | 46 | 227 | 0.9 | 2.6 | 0.00 | 0.00 | 0.00 | 77 | 1016.7 |
| 20260507122505 | 46 | 212 | 0.9 | 2.6 | 0.00 | 0.00 | 0.00 | 77 | 1016.7 |
| 20260507122005 | 46 | 228 | 1.7 | 2.6 | 0.00 | 0.00 | 0.00 | 77 | 1016.7 |
| 20260507121504 | 46 | 212 | 0.9 | 2.6 | 0.00 | 0.00 | 0.00 | 77 | 1016.7 |
| 20260507121005 | 45 | 218 | 0.9 | 2.6 | 0.00 | 0.00 | 0.00 | 77 | 1016.8 |
| 20260507120505 | 45 | 213 | 0.9 | 2.6 | 0.00 | 0.00 | 0.00 | 77 | 1016.7 |
| 20260507120005 | 45 | 216 | 0.9 | 2.6 | 0.00 | 0.00 | 0.00 | 77 | 1016.7 |
| 20260507115504 | 45 | 214 | 1.7 | 2.6 | 0.00 | 0.00 | 0.00 | 77 | 1016.6 |
| 20260507115005 | 45 | 216 | 0.9 | 2.6 | 0.00 | 0.00 | 0.00 | 77 | 1016.5 |
| 20260507114505 | 45 | 215 | 0.9 | 2.6 | 0.00 | 0.00 | 0.00 | 77 | 1016.5 |
| 20260507113504 | 45 | 228 | 0.9 | 2.6 | 0.00 | 0.00 | 0.00 | 77 | 1016.5 |
| 20260507113005 | 45 | 217 | 0.9 | 2.6 | 0.00 | 0.00 | 0.00 | 77 | 1016.5 |
| 20260507112505 | 45 | 218 | 0.9 | 2.6 | 0.00 | 0.00 | 0.00 | 76 | 1016.5 |
| 20260507112005 | 45 | 214 | 0.9 | 1.7 | 0.00 | 0.00 | 0.00 | 75 | 1016.4 |
| 20260507111506 | 45 | 221 | 0.9 | 1.7 | 0.00 | 0.00 | 0.00 | 74 | 1016.5 |
| 20260507111004 | 45 | 208 | 0.9 | 1.7 | 0.00 | 0.00 | 0.00 | 74 | 1016.5 |
| 20260507110505 | 45 | 207 | 0.9 | 1.7 | 0.00 | 0.00 | 0.00 | 73 | 1016.5 |
| 20260507105505 | 46 | 208 | 1.7 | 2.6 | 0.00 | 0.00 | 0.00 | 73 | 1016.4 |
| 20260507105004 | 46 | 219 | 0.9 | 2.6 | 0.00 | 0.00 | 0.00 | 73 | 1016.4 |
| 20260507104005 | 46 | 220 | 0.9 | 2.6 | 0.00 | 0.00 | 0.00 | 72 | 1016.4 |
| 20260507103005 | 46 | 233 | 1.7 | 2.6 | 0.00 | 0.00 | 0.00 | 71 | 1016.5 |
| 20260507102504 | 46 | 224 | 1.7 | 2.6 | 0.00 | 0.00 | 0.00 | 71 | 1016.5 |
| 20260507102006 | 46 | 231 | 0.9 | 2.6 | 0.00 | 0.00 | 0.00 | 72 | 1016.5 |
| 20260507101504 | 46 | 222 | 0.9 | 2.6 | 0.00 | 0.00 | 0.00 | 72 | 1016.4 |
| 20260507100505 | 46 | 221 | 0.9 | 2.6 | 0.00 | 0.00 | 0.00 | 72 | 1016.4 |
| 20260507100005 | 45 | 219 | 0.9 | 2.6 | 0.00 | 0.00 | 0.00 | 73 | 1016.5 |
| 20260507095505 | 45 | 223 | 1.7 | 2.6 | 0.00 | 0.00 | 0.00 | 73 | 1016.5 |
| 20260507095005 | 45 | 225 | 0.9 | 2.6 | 0.00 | 0.00 | 0.00 | 72 | 1016.6 |
| 20260507094505 | 46 | 216 | 0.9 | 2.6 | 0.00 | 0.00 | 0.00 | 72 | 1016.7 |
| 20260507094005 | 46 | 230 | 0.9 | 2.6 | 0.00 | 0.00 | 0.00 | 71 | 1016.7 |
| 20260507093504 | 46 | 227 | 0.9 | 2.6 | 0.00 | 0.00 | 0.00 | 70 | 1016.8 |
| 20260507093004 | 46 | 221 | 0.9 | 2.6 | 0.00 | 0.00 | 0.00 | 69 | 1016.7 |
| 20260507092504 | 46 | 228 | 1.7 | 2.6 | 0.00 | 0.00 | 0.00 | 69 | 1016.7 |
| 20260507092004 | 46 | 232 | 0.9 | 2.6 | 0.00 | 0.00 | 0.00 | 69 | 1016.7 |
| 20260507091504 | 46 | 233 | 0.9 | 2.6 | 0.00 | 0.00 | 0.00 | 69 | 1016.7 |
| 20260507091005 | 46 | 226 | 0.9 | 2.6 | 0.00 | 0.00 | 0.00 | 70 | 1016.8 |
| 20260507090505 | 46 | 230 | 0.9 | 2.6 | 0.00 | 0.00 | 0.00 | 70 | 1016.8 |
| 20260507090005 | 46 | 217 | 0.9 | 2.6 | 0.00 | 0.00 | 0.00 | 71 | 1016.7 |
| 20260507085504 | 46 | 227 | 0.9 | 2.6 | 0.00 | 0.00 | 0.00 | 70 | 1016.7 |
| 20260507085005 | 46 | 229 | 0.9 | 2.6 | 0.00 | 0.00 | 0.00 | 70 | 1016.7 |
| 20260507084504 | 46 | 223 | 0.9 | 2.6 | 0.00 | 0.00 | 0.00 | 70 | 1016.7 |
| 20260507084004 | 46 | 219 | 0.9 | 2.6 | 0.00 | 0.00 | 0.00 | 71 | 1016.7 |
| 20260507083504 | 46 | 224 | 0.9 | 2.6 | 0.00 | 0.00 | 0.00 | 71 | 1016.8 |
| 20260507082504 | 46 | 230 | 1.7 | 6.1 | 0.00 | 0.00 | 0.00 | 72 | 1016.8 |
| 20260507082005 | 46 | 229 | 1.7 | 6.1 | 0.00 | 0.00 | 0.00 | 73 | 1016.9 |
| 20260507081504 | 46 | 230 | 1.7 | 2.6 | 0.00 | 0.00 | 0.00 | 73 | 1016.8 |
| 20260507081004 | 46 | 228 | 1.7 | 2.6 | 0.00 | 0.00 | 0.00 | 73 | 1016.8 |
| 20260507080005 | 46 | 230 | 1.7 | 2.6 | 0.00 | 0.00 | 0.00 | 74 | 1016.7 |
| 20260507075504 | 46 | 230 | 1.7 | 2.6 | 0.00 | 0.00 | 0.00 | 73 | 1016.7 |
| 20260507075005 | 46 | 230 | 0.9 | 2.6 | 0.00 | 0.00 | 0.00 | 73 | 1016.8 |
| 20260507074504 | 47 | 230 | 0.9 | 1.7 | 0.00 | 0.00 | 0.00 | 72 | 1016.8 |
| 20260507074004 | 47 | 230 | 0.9 | 1.7 | 0.00 | 0.00 | 0.00 | 71 | 1016.8 |
| 20260507073504 | 47 | 230 | 0.9 | 1.7 | 0.00 | 0.00 | 0.00 | 70 | 1016.8 |
| 20260507072004 | 48 | 230 | 1.7 | 2.6 | 0.00 | 0.00 | 0.00 | 67 | 1016.9 |
| 20260507071504 | 49 | 230 | 1.7 | 2.6 | 0.00 | 0.00 | 0.00 | 66 | 1017.0 |
| 20260507071004 | 49 | 231 | 1.7 | 4.3 | 0.00 | 0.00 | 0.00 | 65 | 1017.1 |
| 20260507065505 | 49 | 234 | 1.7 | 4.3 | 0.00 | 0.01 | 0.00 | 63 | 1017.4 |
| 20260507065004 | 49 | 239 | 1.7 | 4.3 | 0.00 | 0.01 | 0.00 | 63 | 1017.5 |
| 20260507064004 | 49 | 232 | 1.7 | 2.6 | 0.00 | 0.01 | 0.00 | 63 | 1017.5 |
| 20260507063505 | 49 | 232 | 1.7 | 4.3 | 0.00 | 0.01 | 0.00 | 63 | 1017.5 |
| 20260507063004 | 49 | 234 | 1.7 | 4.3 | 0.00 | 0.01 | 0.00 | 64 | 1017.5 |
| 20260507062504 | 49 | 235 | 1.7 | 2.6 | 0.00 | 0.01 | 0.00 | 64 | 1017.5 |
| 20260507062005 | 49 | 234 | 0.9 | 4.3 | 0.00 | 0.01 | 0.00 | 63 | 1017.5 |
| 20260507061504 | 49 | 234 | 1.7 | 4.3 | 0.00 | 0.01 | 0.00 | 63 | 1017.6 |
| 20260507061004 | 49 | 234 | 1.7 | 4.3 | 0.00 | 0.01 | 0.00 | 62 | 1017.5 |
| 20260507060504 | 49 | 234 | 0.9 | 2.6 | 0.00 | 0.01 | 0.00 | 63 | 1017.5 |
| 20260507060004 | 49 | 234 | 0.9 | 4.3 | 0.00 | 0.01 | 0.00 | 62 | 1017.5 |
| 20260507055504 | 49 | 234 | 1.7 | 4.3 | 0.00 | 0.01 | 0.00 | 62 | 1017.5 |
| 20260507055005 | 49 | 242 | 0.9 | 4.3 | 0.00 | 0.01 | 0.00 | 62 | 1017.6 |
| 20260507054505 | 49 | 242 | 0.9 | 4.3 | 0.00 | 0.01 | 0.00 | 61 | 1017.6 |
| 20260507054004 | 49 | 242 | 1.7 | 4.3 | 0.00 | 0.01 | 0.00 | 61 | 1017.7 |
| 20260507053504 | 49 | 267 | 0.9 | 2.6 | 0.00 | 0.01 | 0.00 | 61 | 1017.6 |
| 20260507053005 | 49 | 267 | 1.7 | 2.6 | 0.00 | 0.01 | 0.00 | 60 | 1017.6 |
| 20260507052504 | 49 | 267 | 0.9 | 2.6 | 0.00 | 0.01 | 0.00 | 60 | 1017.6 |
| 20260507052004 | 49 | 267 | 1.7 | 2.6 | 0.00 | 0.01 | 0.00 | 59 | 1017.6 |
| 20260507051505 | 49 | 267 | 0.9 | 2.6 | 0.00 | 0.01 | 0.00 | 58 | 1017.6 |
| 20260507050504 | 49 | 5 | 0.9 | 2.6 | 0.00 | 0.02 | 0.00 | 58 | 1017.6 |
| 20260507050005 | 49 | 5 | 0.9 | 1.7 | 0.00 | 0.02 | 0.00 | 59 | 1017.6 |
| 20260507045504 | 49 | 5 | 0.9 | 1.7 | 0.00 | 0.02 | 0.02 | 59 | 1017.6 |
| 20260507044504 | 49 | 5 | 0.9 | 1.7 | 0.00 | 0.02 | 0.02 | 60 | 1017.7 |
| 20260507044005 | 49 | 5 | 0.9 | 1.7 | 0.00 | 0.02 | 0.02 | 60 | 1017.7 |
| 20260507043504 | 49 | 5 | 0.9 | 1.7 | 0.00 | 0.02 | 0.02 | 59 | 1017.7 |
| 20260507043004 | 49 | 5 | 0.9 | 1.7 | 0.00 | 0.02 | 0.02 | 60 | 1017.7 |
| 20260507042504 | 49 | 5 | 0.9 | 1.7 | 0.00 | 0.02 | 0.02 | 59 | 1017.5 |
| 20260507042004 | 49 | 5 | 0.9 | 1.7 | 0.00 | 0.02 | 0.02 | 60 | 1017.5 |
| 20260507040504 | 50 | 5 | 0.9 | 1.7 | 0.00 | 0.02 | 0.02 | 55 | 1017.8 |
| 20260507040005 | 50 | 5 | 0.9 | 1.7 | 0.00 | 0.02 | 0.02 | 54 | 1017.9 |
| 20260507035505 | 50 | 5 | 0.0 | 1.7 | 0.00 | 0.02 | 0.02 | 53 | 1018.0 |
| 20260507035004 | 51 | 5 | 0.9 | 1.7 | 0.00 | 0.02 | 0.02 | 52 | 1018.0 |
| 20260507034004 | 51 | 5 | 0.0 | 0.9 | 0.00 | 0.02 | 0.02 | 50 | 1017.9 |
| 20260507033504 | 51 | 5 | 0.0 | 0.9 | 0.00 | 0.02 | 0.02 | 50 | 1017.9 |
| 20260507032504 | 52 | 5 | 0.0 | 1.7 | 0.00 | 0.02 | 0.02 | 48 | 1017.7 |
| 20260507032005 | 52 | 5 | 0.9 | 1.7 | 0.00 | 0.02 | 0.02 | 46 | 1017.8 |
| 20260507031504 | 53 | 5 | 0.9 | 0.9 | 0.00 | 0.02 | 0.02 | 42 | 1017.8 |
| 20260507031004 | 53 | 5 | 0.0 | 1.7 | 0.00 | 0.02 | 0.02 | 42 | 1017.7 |
| 20260507030005 | 53 | 5 | 0.9 | 1.7 | 0.00 | 0.02 | 0.02 | 42 | 1017.8 |
| 20260507025504 | 53 | 5 | 0.9 | 0.9 | 0.00 | 0.02 | 0.02 | 41 | 1017.8 |
| 20260507024004 | 53 | 5 | 0.9 | 1.7 | 0.00 | 0.02 | 0.02 | 42 | 1017.7 |
| 20260507023504 | 53 | 5 | 0.0 | 0.9 | 0.00 | 0.02 | 0.02 | 42 | 1017.5 |
| 20260507023005 | 53 | 5 | 0.0 | 0.9 | 0.00 | 0.02 | 0.02 | 42 | 1017.5 |
| 20260507022504 | 53 | 5 | 0.0 | 0.9 | 0.00 | 0.02 | 0.02 | 42 | 1017.5 |
| 20260507022004 | 53 | 5 | 0.0 | 0.0 | 0.00 | 0.02 | 0.02 | 42 | 1017.4 |
| 20260507021504 | 53 | 5 | 0.0 | 0.0 | 0.00 | 0.02 | 0.02 | 42 | 1017.4 |
| 20260507021004 | 53 | 5 | 0.0 | 0.0 | 0.00 | 0.02 | 0.02 | 42 | 1017.4 |
| 20260507020504 | 53 | 5 | 0.0 | 0.0 | 0.00 | 0.02 | 0.02 | 42 | 1017.4 |
| 20260507020004 | 54 | 5 | 0.0 | 0.0 | 0.00 | 0.02 | 0.02 | 42 | 1017.4 |
| 20260507015504 | 54 | 5 | 0.0 | 0.0 | 0.00 | 0.02 | 0.02 | 42 | 1017.4 |
| 20260507015004 | 54 | 5 | 0.0 | 0.9 | 0.00 | 0.02 | 0.02 | 42 | 1017.3 |
| 20260507014004 | 55 | 5 | 0.0 | 0.9 | 0.00 | 0.02 | 0.02 | 42 | 1017.3 |
| 20260507013504 | 55 | 5 | 0.0 | 0.9 | 0.00 | 0.02 | 0.02 | 40 | 1017.2 |
| 20260507013004 | 55 | 5 | 0.0 | 0.9 | 0.00 | 0.02 | 0.02 | 39 | 1017.2 |
| 20260507012504 | 56 | 5 | 0.0 | 2.6 | 0.00 | 0.02 | 0.02 | 39 | 1017.0 |
| 20260507012004 | 56 | 5 | 0.0 | 2.6 | 0.00 | 0.02 | 0.02 | 39 | 1016.9 |
| 20260507011504 | 57 | 5 | 0.9 | 2.6 | 0.00 | 0.02 | 0.02 | 37 | 1016.9 |
| 20260507011004 | 57 | 5 | 0.9 | 1.7 | 0.00 | 0.02 | 0.02 | 37 | 1016.9 |
| 20260507010005 | 58 | 5 | 0.9 | 4.3 | 0.00 | 0.02 | 0.02 | 36 | 1016.8 |
| 20260507005505 | 59 | 49 | 0.9 | 2.6 | 0.00 | 0.02 | 0.02 | 35 | 1016.8 |
| 20260507005006 | 59 | 68 | 0.9 | 4.3 | 0.00 | 0.02 | 0.02 | 35 | 1016.7 |
| 20260507004505 | 60 | 61 | 0.9 | 4.3 | 0.00 | 0.02 | 0.02 | 34 | 1016.7 |
| 20260507004005 | 60 | 46 | 0.0 | 2.6 | 0.00 | 0.02 | 0.02 | 34 | 1016.7 |
| 20260507003505 | 60 | 46 | 0.9 | 2.6 | 0.00 | 0.02 | 0.02 | 35 | 1016.7 |
| 20260507003005 | 59 | 49 | 0.9 | 2.6 | 0.00 | 0.02 | 0.02 | 34 | 1016.8 |
| 20260507002505 | 59 | 49 | 0.9 | 6.1 | 0.00 | 0.02 | 0.02 | 34 | 1016.8 |
| 20260507001505 | 59 | 60 | 1.7 | 6.1 | 0.00 | 0.02 | 0.02 | 35 | 1016.6 |
| 20260507000505 | 59 | 51 | 1.7 | 6.1 | 0.00 | 0.02 | 0.02 | 34 | 1016.6 |
| 20260506235005 | 60 | 342 | 3.5 | 10.4 | 0.00 | 0.02 | 0.02 | 33 | 1016.8 |
| 20260506234505 | 60 | 13 | 1.7 | 5.2 | 0.00 | 0.02 | 0.02 | 34 | 1016.9 |
| 20260506234005 | 60 | 78 | 0.9 | 5.2 | 0.00 | 0.02 | 0.02 | 33 | 1016.8 |
| 20260506233005 | 61 | 333 | 1.7 | 8.7 | 0.00 | 0.02 | 0.02 | 35 | 1016.8 |
| 20260506232505 | 61 | 331 | 0.9 | 10.4 | 0.00 | 0.02 | 0.02 | 34 | 1016.8 |
| 20260506232005 | 61 | 325 | 4.3 | 10.4 | 0.00 | 0.02 | 0.02 | 33 | 1016.7 |
| 20260506231505 | 61 | 309 | 2.6 | 10.4 | 0.00 | 0.02 | 0.02 | 34 | 1016.8 |
| 20260506231005 | 61 | 0 | 1.7 | 7.8 | 0.00 | 0.02 | 0.02 | 33 | 1016.7 |
| 20260506230505 | 61 | 341 | 2.6 | 7.8 | 0.00 | 0.02 | 0.02 | 34 | 1016.7 |
| 20260506230005 | 61 | 7 | 1.7 | 7.0 | 0.00 | 0.02 | 0.02 | 34 | 1016.7 |
| 20260506225505 | 61 | 63 | 1.7 | 7.0 | 0.00 | 0.02 | 0.02 | 34 | 1016.6 |
| 20260506224504 | 61 | 58 | 2.6 | 5.2 | 0.00 | 0.02 | 0.02 | 33 | 1016.8 |
| 20260506223505 | 61 | 61 | 2.6 | 8.7 | 0.00 | 0.02 | 0.02 | 34 | 1016.8 |
| 20260506222005 | 61 | 325 | 1.7 | 5.2 | 0.00 | 0.02 | 0.02 | 35 | 1016.7 |
| 20260506221505 | 60 | 330 | 1.7 | 10.4 | 0.00 | 0.02 | 0.02 | 34 | 1016.8 |
| 20260506221005 | 60 | 267 | 2.6 | 10.4 | 0.00 | 0.02 | 0.02 | 34 | 1016.9 |
| 20260506220005 | 60 | 312 | 3.5 | 10.4 | 0.00 | 0.02 | 0.02 | 34 | 1016.9 |
| 20260506215505 | 60 | 306 | 4.3 | 10.4 | 0.00 | 0.02 | 0.02 | 34 | 1017.1 |
| 20260506215006 | 60 | 348 | 0.9 | 8.7 | 0.00 | 0.02 | 0.02 | 36 | 1017.0 |
| 20260506214505 | 59 | 339 | 3.5 | 8.7 | 0.00 | 0.02 | 0.02 | 35 | 1017.0 |
| 20260506213505 | 60 | 307 | 4.3 | 12.2 | 0.00 | 0.02 | 0.02 | 33 | 1017.1 |
| 20260506213005 | 61 | 66 | 1.7 | 7.8 | 0.00 | 0.02 | 0.02 | 35 | 1017.1 |
| 20260506212505 | 60 | 339 | 2.6 | 7.8 | 0.00 | 0.02 | 0.02 | 36 | 1017.2 |
| 20260506212005 | 60 | 350 | 2.6 | 7.0 | 0.00 | 0.02 | 0.02 | 37 | 1017.2 |
| 20260506211504 | 59 | 39 | 2.6 | 7.0 | 0.00 | 0.02 | 0.02 | 35 | 1017.1 |
| 20260506211005 | 59 | 352 | 2.6 | 12.2 | 0.00 | 0.02 | 0.02 | 36 | 1017.3 |
| 20260506210505 | 59 | 324 | 1.7 | 12.2 | 0.00 | 0.02 | 0.02 | 36 | 1017.3 |
| 20260506210005 | 59 | 339 | 3.5 | 7.8 | 0.00 | 0.02 | 0.02 | 34 | 1017.5 |
| 20260506205505 | 60 | 54 | 1.7 | 10.4 | 0.00 | 0.02 | 0.02 | 37 | 1017.7 |
| 20260506205005 | 59 | 13 | 1.7 | 10.4 | 0.00 | 0.02 | 0.02 | 36 | 1017.7 |
| 20260506204505 | 60 | 309 | 4.3 | 10.4 | 0.00 | 0.02 | 0.02 | 35 | 1017.7 |
| 20260506204005 | 60 | 33 | 1.7 | 5.2 | 0.00 | 0.02 | 0.02 | 35 | 1017.8 |
| 20260506203505 | 60 | 77 | 1.7 | 6.1 | 0.00 | 0.02 | 0.02 | 36 | 1017.8 |
| 20260506203005 | 60 | 30 | 0.9 | 11.3 | 0.00 | 0.02 | 0.02 | 34 | 1017.9 |
| 20260506202505 | 60 | 325 | 3.5 | 11.3 | 0.00 | 0.02 | 0.02 | 36 | 1017.9 |
| 20260506202005 | 59 | 284 | 0.9 | 8.7 | 0.00 | 0.02 | 0.02 | 39 | 1017.9 |
| 20260506201505 | 59 | 321 | 2.6 | 8.7 | 0.00 | 0.02 | 0.02 | 36 | 1017.9 |
| 20260506201005 | 61 | 324 | 2.6 | 8.7 | 0.00 | 0.02 | 0.02 | 36 | 1018.0 |
| 20260506200505 | 60 | 36 | 1.7 | 5.2 | 0.00 | 0.02 | 0.02 | 34 | 1018.1 |
| 20260506200005 | 59 | 274 | 1.7 | 5.2 | 0.00 | 0.02 | 0.02 | 37 | 1018.0 |
| 20260506195505 | 59 | 334 | 1.7 | 5.2 | 0.00 | 0.02 | 0.02 | 39 | 1018.1 |
| 20260506195005 | 59 | 318 | 3.5 | 5.2 | 0.00 | 0.02 | 0.02 | 37 | 1018.1 |
| 20260506194505 | 59 | 326 | 1.7 | 5.2 | 0.00 | 0.02 | 0.02 | 37 | 1018.1 |
| 20260506194005 | 59 | 19 | 1.7 | 7.8 | 0.00 | 0.02 | 0.02 | 36 | 1018.4 |
| 20260506193505 | 58 | 26 | 1.7 | 7.8 | 0.00 | 0.02 | 0.02 | 38 | 1018.5 |
| 20260506193005 | 58 | 290 | 1.7 | 6.1 | 0.00 | 0.02 | 0.02 | 37 | 1018.5 |
| 20260506192505 | 58 | 55 | 1.7 | 7.8 | 0.00 | 0.02 | 0.02 | 35 | 1018.3 |
| 20260506192005 | 57 | 309 | 0.9 | 7.8 | 0.00 | 0.03 | 0.02 | 37 | 1018.5 |
| 20260506191504 | 57 | 82 | 0.9 | 10.4 | 0.00 | 0.03 | 0.02 | 37 | 1018.6 |
| 20260506191005 | 57 | 318 | 2.6 | 10.4 | 0.00 | 0.03 | 0.02 | 37 | 1018.5 |
| 20260506190505 | 59 | 336 | 2.6 | 10.4 | 0.00 | 0.03 | 0.02 | 37 | 1018.5 |
| 20260506190006 | 58 | 24 | 0.9 | 5.2 | 0.00 | 0.03 | 0.02 | 38 | 1018.6 |
| 20260506185005 | 57 | 73 | 1.7 | 4.3 | 0.00 | 0.03 | 0.02 | 37 | 1018.6 |
| 20260506184505 | 57 | 338 | 1.7 | 7.0 | 0.00 | 0.03 | 0.02 | 42 | 1018.8 |
| 20260506184005 | 56 | 291 | 2.6 | 7.0 | 0.00 | 0.03 | 0.02 | 41 | 1018.9 |
| 20260506183505 | 56 | 47 | 1.7 | 10.4 | 0.00 | 0.03 | 0.02 | 38 | 1018.9 |
| 20260506182504 | 56 | 330 | 2.6 | 5.2 | 0.00 | 0.03 | 0.02 | 41 | 1018.8 |
| 20260506182005 | 56 | 319 | 0.9 | 5.2 | 0.00 | 0.03 | 0.02 | 40 | 1018.9 |
| 20260506181504 | 56 | 321 | 1.7 | 5.2 | 0.00 | 0.03 | 0.02 | 39 | 1018.9 |
| 20260506180505 | 55 | 320 | 1.7 | 6.1 | 0.00 | 0.03 | 0.02 | 41 | 1018.9 |
| 20260506180005 | 56 | 329 | 4.3 | 6.1 | 0.00 | 0.03 | 0.02 | 39 | 1019.0 |
| 20260506175505 | 56 | 313 | 1.7 | 4.3 | 0.00 | 0.03 | 0.02 | 41 | 1019.0 |
| 20260506175004 | 56 | 323 | 1.7 | 6.1 | 0.00 | 0.03 | 0.02 | 37 | 1019.0 |
| 20260506174505 | 56 | 340 | 0.9 | 6.1 | 0.00 | 0.03 | 0.02 | 39 | 1019.0 |
| 20260506173505 | 56 | 0 | 0.9 | 2.6 | 0.00 | 0.03 | 0.02 | 38 | 1019.2 |
| 20260506173005 | 56 | 11 | 1.7 | 2.6 | 0.00 | 0.03 | 0.02 | 41 | 1019.2 |
| 20260506172505 | 56 | 338 | 0.9 | 7.0 | 0.00 | 0.03 | 0.02 | 41 | 1019.2 |
| 20260506171504 | 56 | 351 | 1.7 | 6.1 | 0.00 | 0.03 | 0.02 | 41 | 1019.2 |
| 20260506171005 | 56 | 352 | 1.7 | 4.3 | 0.00 | 0.03 | 0.02 | 40 | 1019.1 |
| 20260506170505 | 56 | 63 | 1.7 | 6.1 | 0.00 | 0.03 | 0.02 | 39 | 1019.1 |
| 20260506170005 | 56 | 46 | 1.7 | 6.1 | 0.00 | 0.04 | 0.02 | 41 | 1019.1 |
| 20260506165505 | 55 | 320 | 1.7 | 4.3 | 0.00 | 0.04 | 0.02 | 44 | 1019.2 |
| 20260506164005 | 54 | 309 | 2.6 | 8.7 | 0.00 | 0.06 | 0.02 | 41 | 1019.1 |
| 20260506163005 | 55 | 72 | 1.7 | 5.2 | 0.00 | 0.09 | 0.02 | 42 | 1019.0 |
| 20260506162505 | 55 | 305 | 0.9 | 8.7 | 0.00 | 0.11 | 0.02 | 41 | 1018.9 |
| 20260506161005 | 56 | 323 | 0.9 | 5.2 | 0.00 | 0.12 | 0.02 | 42 | 1018.7 |
| 20260506160505 | 55 | 318 | 1.7 | 5.2 | 0.00 | 0.13 | 0.02 | 41 | 1018.8 |
| 20260506160005 | 56 | 92 | 1.7 | 8.7 | 0.00 | 0.13 | 0.02 | 40 | 1018.7 |